Location: Melbourne
(37.8120°S, 144.9677°E)
Time: 15:06:20
(UTC+10:00)

ISS - Visible Passes

Search period start: 25 September 2018 00:00
Search period end: 05 October 2018 00:00
Orbit: 403 x 408 km, 51.6° (Epoch: 25 September)

Date Brightness Start Highest point End Pass type
(mag) Time Alt. Az. Time Alt. Az. Time Alt. Az.
27 Sep -1.2 04:51:13 10° N 04:53:32 18° NE 04:55:53 10° E visible
29 Sep -3.0 04:44:13 22° NNW 04:46:03 47° NE 04:49:17 10° ESE visible
30 Sep -1.7 03:54:43 23° ENE 03:54:43 23° ENE 03:57:00 10° ESE visible
30 Sep -2.8 05:27:37 10° W 05:30:40 33° SSW 05:33:45 10° SE visible
01 Oct -3.7 04:37:46 41° W 04:38:41 62° SW 04:42:00 10° SE visible
02 Oct -2.1 03:48:02 33° ESE 03:48:02 33° ESE 03:50:04 10° SE visible
02 Oct -1.8 05:21:09 10° WSW 05:23:33 18° SSW 05:25:58 10° SSE visible
03 Oct -2.5 04:30:53 26° SW 04:31:25 27° SSW 04:34:21 10° SSE visible
04 Oct -1.6 03:40:59 25° SSE 03:40:59 25° SSE 03:42:37 10° SE visible
04 Oct -1.2 05:15:15 10° SW 05:16:32 12° SSW 05:17:49 10° S visible
